Tracking 29892 objects as of 21-Nov-2024
HD Live streaming from Space Station
objects crossing your sky now

ONEWEB-0357

Track ONEWEB-0357 now!
10-day predictions
ONEWEB-0357 is classified as:


NORAD ID: 49219
Int'l Code: 2021-083AK
Perigee: 1,187.7 km
Apogee: 1,190.1 km
Inclination: 87.9 °
Period: 109.0 minutes
Semi major axis: 7559 km
RCS: Unknown
Launch date: September 14, 2021
Source: United Kingdom (UK)
Launch site: TYURATAM MISSILE AND SPACE COMPLEX (TTMTR)
Your satellite tracking list
Your tracking list is empty




NASA's NSSDC Master Catalog

Two Line Element Set (TLE):
1 49219U 21083AK  24325.57523460  .00000024  00000-0  26468-4 0  9993
2 49219  87.9280  28.5590 0001639  96.4910 263.6410 13.20773964162393
Source of the keplerian elements: AFSPC